Terug naar catalogus

KUIPER-00056

ActiefCommunicatieLEO
NORAD 64516·PAYLOAD·🇺🇸 United States

Gelanceerd Jun 23, 2025 vanaf Cape Canaveral Space Force Station

Loading…

Volgende Passages (komende 24 uur)

TLE

VersSource: CelesTrak SupGP

Epoch: Sep 14, 2026, 22:50 UTC

1 64516C 25134S   26257.95185185  .00005534  00000+0  72442-3 0  2576
2 64516  51.9003 106.2384 0001058 107.9196 203.5113 14.79928248    13

Volg KUIPER-00056 in realtime met AllMySat

Download on the App Store